Temperature
23 20 20 20 20 21 22 22 22 22 22 22 21 20 20 20 20 19 19 19 18 18 19 18 18 18 18 17 17 17 16 16 16 16 15 15 15 15 15 14 14 14 14 14
20 20 22 22 22 23 22 22 22 22 23 22 21 20 20 19 19 19 19 18 18 18 18 18 18 17 17 17 17 16 16 16 16 15 15 15 15 14 14 14 14 14 13 13
21 22 24 24 23 23 22 22 22 22 22 22 21 20 19 19 19 19 19 19 18 18 18 17 17 17 17 17 16 16 16 15 15 15 15 14 14 14 14 13 13 13 13 13
22 23 24 24 23 23 22 23 23 23 21 19 21 19 19 19 18 18 18 18 18 18 18 17 17 17 17 16 16 15 15 15 15 14 14 14 14 14 14 13 13 13 13 13
23 24 24 24 24 24 23 23 23 22 20 19 19 19 18 18 18 18 18 18 18 18 18 17 17 17 17 16 16 15 15 14 14 14 14 14 14 13 13 13 13 13 12 12
23 25 25 25 25 25 24 22 21 19 18 19 19 19 18 17 18 18 18 18 18 18 18 17 17 16 16 16 15 15 15 14 14 14 13 13 13 13 13 12 12 12 12 12
23 24 25 25 24 24 22 20 19 19 18 18 19 19 18 18 19 19 18 18 18 17 17 16 16 16 15 15 15 14 14 14 13 13 13 13 13 13 12 12 12 12 12 12
21 21 23 24 24 23 22 20 19 19 18 18 19 18 18 19 19 19 19 18 17 17 16 16 16 16 15 15 14 14 14 14 13 13 13 13 12 12 12 12 12 11 11 12
21 21 24 25 25 24 23 21 19 18 19 18 18 18 18 18 18 17 17 17 16 16 16 16 16 15 15 15 14 14 14 13 13 13 13 12 12 12 12 12 11 11 11 11
21 21 22 24 24 23 22 21 18 18 18 18 18 19 18 18 17 17 16 16 16 16 16 16 16 15 15 14 14 14 13 13 13 13 12 12 12 12 12 11 11 11 11 11
21 20 21 21 22 22 22 21 19 17 17 17 17 18 19 18 17 17 16 16 16 16 16 16 15 15 14 14 14 14 13 13 13 12 12 12 12 12 11 11 11 11 11 10
20 18 18 20 21 22 21 21 18 18 18 17 17 17 19 17 17 17 16 16 16 16 16 15 15 14 14 14 14 13 13 13 13 12 12 12 12 11 11 11 11 10 10 10
20 17 18 18 19 20 21 21 19 17 16 16 17 17 18 17 16 17 16 16 16 15 15 15 14 14 14 14 13 13 13 13 12 12 12 11 11 11 11 11 11 10 10 10
20 17 17 18 18 19 20 20 20 18 16 17 17 17 17 16 16 16 16 16 15 15 15 14 14 14 14 13 13 13 13 12 12 12 11 11 11 11 11 11 10 10 10 10
17 17 18 18 20 20 20 20 21 19 18 17 18 17 17 16 16 16 16 15 15 15 14 14 14 14 13 13 13 13 12 12 12 12 11 11 11 11 11 10 10 10 10 10
15 17 18 18 19 20 20 20 20 20 19 19 18 17 17 17 17 16 16 15 14 14 14 14 14 14 13 13 13 12 12 12 12 12 11 11 11 11 10 10 10 10 10 10
15 15 16 16 18 18 18 19 20 19 19 18 17 17 16 16 16 16 16 15 15 15 15 14 14 14 14 13 13 12 12 12 12 11 11 11 11 11 10 10 10 10 10 10
15 14 14 15 17 17 18 19 20 19 18 17 17 16 16 16 16 16 16 16 15 15 15 14 14 14 14 13 13 12 12 12 11 11 11 11 11 11 10 10 10 10 10 10
15 15 14 14 15 16 18 19 19 18 17 17 16 15 15 15 15 15 16 16 16 15 15 15 14 14 13 13 13 12 12 11 11 11 11 11 11 11 10 10 10 10 10 10
15 14 14 14 15 16 17 18 19 18 16 16 16 15 15 15 13 14 15 16 15 15 15 15 14 14 13 13 12 12 12 11 11 11 11 11 11 11 11 10 10 10 10 10
15 14 14 14 15 15 17 18 18 16 15 16 16 16 15 14 14 15 15 15 15 15 15 14 14 14 13 13 12 12 11 11 11 11 11 11 11 11 11 10 10 10 10 10
14 14 14 14 14 15 16 17 16 15 16 16 16 16 15 16 15 15 15 15 15 14 14 14 14 13 13 13 12 12 11 11 11 11 11 11 11 11 11 10 10 10 10 10
14 13 13 13 13 15 16 16 16 16 15 16 15 15 16 15 15 15 14 14 14 14 14 13 13 13 13 12 12 12 12 11 11 11 11 11 11 11 11 11 11 10 10 10
14 14 13 13 13 14 15 16 16 16 16 15 15 15 15 15 15 14 14 14 14 14 13 13 13 13 12 12 12 12 12 11 11 11 11 11 11 11 11 11 11 11 11 11
13 13 12 12 13 14 15 15 15 15 15 15 15 15 15 15 14 14 14 14 14 14 13 13 13 13 12 12 12 12 12 11 11 11 11 11 11 11 11 11 11 11 11 11
13 12 12 12 13 13 14 15 15 15 15 15 14 14 15 14 14 14 14 14 14 14 13 13 13 13 12 12 12 12 12 12 11 11 11 11 11 11 11 11 11 11 11 11
Wind_Speed
1 3 3 7 6 6 4 2 4 6 5 1 3 4 6 9 8 9 10 10 9 8 6 7 8 8 9 8 7 7 7 5 5 3 3 2 2 1 1 1 1 1 0 1
4 4 11 7 4 2 1 1 4 5 2 1 2 4 6 7 10 11 11 10 10 8 7 7 8 7 7 7 6 6 6 5 4 3 2 2 2 1 1 1 2 1 1 1
6 8 5 3 3 2 2 4 4 4 3 2 2 2 1 3 4 5 6 8 10 12 12 10 10 8 8 8 6 5 5 5 4 3 3 3 3 2 1 1 1 2 1 1
4 5 2 2 4 3 4 6 5 2 2 2 2 1 5 2 2 4 6 7 9 10 10 9 9 9 9 8 7 6 5 4 3 3 4 4 3 2 2 1 1 1 2 1
5 4 3 4 6 5 6 4 2 1 2 2 2 2 5 1 2 5 6 8 9 10 11 11 11 10 9 8 7 6 5 4 4 4 4 4 3 1 1 0 0 1 1 1
7 5 4 5 4 4 2 4 4 5 4 1 3 3 5 4 5 5 7 8 9 10 10 10 10 9 8 7 7 6 6 4 3 3 3 4 4 3 2 1 1 1 1 2
7 7 5 2 2 4 4 5 4 5 4 5 3 3 6 5 5 6 7 8 8 9 9 10 11 10 8 8 7 6 6 4 4 4 3 3 4 4 4 3 2 2 2 2
2 7 5 2 2 3 2 7 6 4 4 5 2 2 5 4 2 2 5 7 7 8 9 10 10 10 9 8 7 6 6 5 4 4 4 3 4 3 3 3 3 3 3 3
1 5 6 5 2 3 1 1 6 6 1 1 2 2 3 0 1 2 4 5 6 7 9 10 9 8 8 8 7 8 7 5 4 4 4 4 3 3 3 3 2 2 2 2
3 3 5 5 5 5 4 4 5 4 1 2 4 3 4 5 5 4 4 6 6 6 7 8 8 8 7 6 6 6 6 6 5 4 4 4 3 3 3 2 2 2 2 2
2 1 5 5 3 2 3 4 4 3 4 4 4 6 5 7 7 8 7 7 9 9 8 8 7 7 7 6 5 5 4 4 4 4 3 3 2 2 1 1 2 2 2 2
2 3 2 5 6 2 2 2 4 2 3 3 3 6 5 4 6 7 7 7 7 8 7 7 7 6 6 6 5 5 4 4 4 4 3 3 2 2 1 1 2 2 2 2
3 4 3 8 8 6 3 1 1 3 2 2 3 6 3 1 1 3 6 7 6 7 7 7 7 7 6 6 5 5 5 5 4 4 3 2 2 1 2 2 2 1 1 2
4 2 4 6 7 5 5 5 3 1 2 3 6 6 4 2 2 2 4 7 7 8 8 8 7 6 6 6 5 5 5 5 5 4 4 3 2 2 2 2 1 1 1 1
4 1 3 6 6 4 5 6 4 3 5 6 6 6 7 7 7 6 6 7 8 8 8 8 7 6 6 5 5 5 4 4 5 4 4 4 3 2 2 1 1 1 1 2
3 1 3 5 5 5 7 6 4 3 3 3 2 3 4 4 4 5 6 9 9 9 9 9 8 7 7 7 6 5 4 4 4 4 4 3 3 2 2 2 1 1 1 1
1 1 1 4 7 5 5 5 3 2 2 3 4 5 2 3 6 7 8 8 9 9 10 10 10 9 8 7 7 6 5 4 4 3 3 3 3 3 2 2 1 1 1 1
5 3 2 3 3 4 7 4 1 1 1 1 2 1 2 4 5 5 6 7 7 7 8 9 8 8 7 6 6 6 5 5 4 3 3 3 3 3 3 2 1 2 1 1
6 6 3 2 3 5 5 4 1 1 2 1 3 2 2 3 4 1 3 5 6 7 7 8 8 8 7 7 7 6 5 4 4 3 3 3 3 4 3 3 2 2 1 1
4 3 3 2 2 4 5 6 3 2 2 2 2 3 2 3 1 4 3 3 4 4 6 7 8 7 8 7 7 7 6 5 4 4 4 3 3 4 4 4 3 2 1 2
5 3 1 3 4 5 4 6 4 2 5 3 1 2 3 3 4 4 4 3 3 3 5 8 9 8 8 8 8 7 5 5 5 4 3 3 3 3 4 3 2 2 1 2
3 2 2 0 2 5 6 5 2 3 2 0 1 1 2 1 2 3 5 4 5 4 4 7 8 7 7 8 8 7 6 5 4 4 3 3 3 3 3 2 2 1 1 1
3 4 3 3 5 6 4 1 2 1 0 1 1 1 3 3 3 2 3 4 4 5 5 5 7 7 6 7 8 8 6 5 4 3 3 3 3 2 2 2 2 1 1 2
3 1 1 3 6 6 5 3 2 0 0 1 1 1 2 3 4 3 4 4 4 4 5 4 6 7 6 6 7 7 6 5 4 4 3 3 2 2 2 2 2 2 2 2
6 3 3 6 7 5 5 3 3 3 2 1 1 1 2 3 4 3 4 5 5 5 4 5 5 6 7 6 6 6 6 6 4 4 3 3 3 3 2 2 3 4 4 5
7 7 6 10 8 5 9 6 3 2 1 1 1 2 2 3 4 3 4 5 5 5 4 4 4 5 6 6 6 5 6 6 5 4 3 3 2 2 2 2 3 6 7 8
Wind_Direction
328 69 253 241 217 202 203 223 267 263 245 158 178 187 188 177 177 178 178 174 174 175 165 150 145 142 135 130 129 130 131 133 125 118 118 115 114 103 71 71 95 107 30 24
16 263 243 233 240 241 214 265 292 300 285 150 185 207 202 186 186 186 177 176 175 161 151 149 143 143 142 140 138 140 138 134 129 135 141 142 137 132 110 25 15 355 13 11
215 247 248 226 262 273 274 212 234 252 337 43 103 347 258 205 188 181 174 169 173 169 166 161 155 154 149 145 146 145 138 132 133 133 115 100 83 63 41 11 342 336 15 34
255 263 273 242 247 208 261 238 221 215 73 310 90 260 277 234 192 191 186 176 176 174 167 165 161 160 156 152 146 141 141 141 144 137 134 136 141 152 209 217 245 309 7 19
258 254 245 243 235 210 231 237 228 156 125 25 358 131 277 264 201 211 202 186 179 180 175 173 167 163 157 151 147 150 145 148 147 145 148 145 140 156 188 226 332 330 327 332
252 265 230 235 255 208 182 51 25 45 75 356 248 175 263 239 222 203 193 183 174 178 179 170 157 151 151 148 146 147 146 157 158 153 150 153 155 155 148 181 250 284 290 297
316 307 293 268 358 347 63 80 29 358 2 255 252 169 242 241 228 195 178 174 173 170 164 159 157 159 158 157 159 159 156 168 174 170 172 177 175 172 179 200 216 227 246 260
329 300 293 309 196 215 204 136 156 204 234 272 324 220 260 249 234 190 156 154 151 154 158 158 163 165 164 166 168 169 174 182 185 185 193 191 182 182 200 209 212 220 234 241
186 277 305 305 298 154 128 183 171 147 175 292 284 267 294 298 110 115 120 130 145 153 154 162 163 163 167 171 178 180 181 183 188 194 193 190 188 190 204 217 217 231 247 250
163 276 313 328 13 19 118 143 77 88 129 284 286 252 234 215 198 180 162 159 162 152 148 153 156 158 162 171 178 182 182 185 191 194 196 191 191 198 208 203 206 216 241 252
103 133 321 355 13 335 18 47 86 115 157 175 257 269 242 203 190 182 181 168 161 159 158 158 159 157 160 162 166 168 176 182 189 187 183 170 184 189 180 188 211 223 238 243
19 106 302 288 287 283 122 137 127 136 260 195 211 264 286 194 181 173 166 165 162 157 153 148 148 149 156 164 167 173 177 177 185 178 166 166 175 173 178 202 231 230 243 253
17 79 9 340 339 353 10 3 112 133 138 188 207 264 316 95 135 168 160 157 151 143 136 137 146 157 167 171 175 181 181 179 180 167 158 163 175 181 207 222 231 234 234 254
39 103 177 221 245 266 290 301 304 95 189 229 226 237 262 220 193 193 165 154 150 145 146 151 159 169 174 177 178 180 183 179 170 159 157 173 193 201 213 217 218 225 218 228
49 302 261 267 271 289 296 296 300 280 222 214 235 225 227 204 191 187 168 156 148 151 159 167 172 176 177 178 181 178 175 172 167 165 171 191 205 203 189 194 217 229 231 233
28 284 316 303 291 305 300 288 280 270 242 228 224 254 230 197 161 161 163 162 161 168 173 175 178 180 181 182 180 170 170 173 162 168 185 195 194 181 183 196 214 214 251 266
261 200 332 284 298 325 290 260 237 237 234 190 215 238 209 161 164 174 171 170 175 181 180 180 183 188 186 181 171 170 174 165 160 167 182 192 186 183 189 190 177 226 241 221
204 201 196 251 317 259 254 256 231 179 257 117 110 133 171 185 177 170 162 168 183 186 187 186 185 184 180 170 163 165 162 163 167 175 182 185 186 191 191 179 207 236 248 250
192 177 183 195 236 269 292 306 295 258 268 101 115 113 70 77 76 86 182 170 187 192 192 187 180 172 165 165 164 157 160 167 173 186 197 199 189 190 191 199 228 241 245 266
46 120 158 190 214 248 268 313 322 53 291 329 113 134 134 87 109 243 214 171 178 179 176 169 159 152 158 167 159 154 165 172 189 197 200 197 186 185 195 208 224 233 227 254
344 342 215 227 238 260 298 329 13 62 267 295 113 150 169 195 220 217 171 161 151 151 161 157 152 157 168 165 156 159 169 190 202 193 185 187 188 193 198 202 217 228 246 292
260 274 285 266 250 260 324 7 38 260 292 105 114 154 172 185 122 130 144 142 133 133 142 149 153 165 168 164 158 164 184 199 189 179 183 195 198 204 190 186 224 245 238 283
230 205 210 216 237 269 315 312 261 189 54 259 208 203 149 141 138 139 156 151 144 153 162 159 162 166 169 169 165 173 194 188 178 176 190 202 199 208 189 187 213 249 251 251
278 281 275 285 272 295 302 322 331 64 55 311 298 198 141 153 160 161 168 162 153 151 164 158 158 166 174 176 175 181 185 179 171 179 192 197 188 214 225 222 216 216 233 242
256 300 285 277 278 306 301 311 341 350 357 15 354 263 177 157 169 181 184 178 171 164 171 161 167 175 181 180 181 184 178 169 168 177 190 197 200 206 223 245 240 231 238 226
246 234 236 253 253 255 272 276 282 289 284 206 262 305 212 185 180 180 185 188 175 165 165 161 167 172 176 178 183 188 182 172 169 177 188 197 207 218 226 245 284 276 256 259
Height
1502 1508 1512 1508 1505 1507 1507 1510 1512 1506 1498 1501 1505 1507 1505 1505 1508 1509 1510 1513 1515 1516 1518 1519 1521 1522 1524 1526 1527 1527 1528 1529 1530 1531 1531 1532 1532 1532 1532 1532 1531 1531 1530 1529
1508 1510 1501 1498 1500 1502 1504 1509 1510 1504 1498 1500 1505 1506 1504 1503 1504 1505 1507 1510 1512 1514 1516 1518 1519 1521 1522 1524 1525 1526 1526 1527 1528 1529 1530 1530 1530 1530 1530 1530 1530 1529 1528 1528
1509 1501 1494 1497 1500 1503 1504 1507 1506 1505 1500 1499 1505 1512 1509 1505 1505 1506 1507 1508 1510 1512 1513 1515 1516 1518 1519 1521 1523 1524 1524 1525 1526 1527 1528 1528 1529 1528 1529 1529 1528 1527 1526 1525
1501 1494 1493 1496 1498 1499 1507 1497 1497 1500 1509 1516 1511 1528 1514 1507 1506 1505 1506 1507 1507 1509 1511 1513 1515 1516 1518 1519 1521 1523 1524 1524 1525 1526 1526 1526 1526 1526 1526 1526 1526 1526 1525 1524
1500 1492 1493 1495 1493 1493 1496 1491 1495 1499 1509 1518 1516 1524 1519 1508 1509 1506 1504 1504 1505 1507 1508 1510 1512 1514 1516 1518 1519 1521 1522 1523 1523 1524 1524 1524 1524 1525 1525 1525 1525 1524 1523 1523
1492 1487 1488 1487 1485 1486 1488 1494 1500 1507 1517 1528 1518 1523 1522 1511 1505 1502 1501 1502 1503 1504 1506 1508 1510 1512 1514 1516 1517 1519 1520 1521 1521 1522 1522 1523 1523 1523 1523 1522 1522 1522 1521 1520
1499 1491 1485 1483 1488 1488 1491 1509 1527 1531 1536 1531 1514 1518 1517 1501 1497 1496 1497 1498 1500 1502 1504 1506 1508 1510 1512 1514 1515 1517 1518 1518 1519 1520 1520 1521 1521 1521 1521 1520 1520 1520 1519 1518
1511 1509 1489 1484 1488 1493 1494 1504 1527 1537 1537 1528 1515 1518 1510 1497 1495 1494 1494 1496 1499 1501 1503 1504 1506 1509 1510 1512 1514 1515 1516 1516 1517 1518 1518 1518 1519 1519 1518 1518 1518 1517 1516 1516
1510 1507 1487 1483 1481 1485 1494 1501 1502 1518 1521 1528 1522 1515 1505 1498 1497 1496 1496 1497 1498 1499 1501 1503 1505 1507 1509 1510 1512 1513 1514 1515 1516 1516 1516 1516 1517 1516 1516 1516 1516 1515 1514 1513
1499 1505 1493 1485 1482 1484 1487 1493 1508 1519 1530 1534 1524 1516 1512 1501 1498 1497 1496 1496 1497 1499 1500 1502 1504 1505 1508 1510 1511 1512 1513 1513 1514 1514 1514 1514 1514 1514 1514 1514 1513 1512 1512 1511
1496 1506 1502 1494 1495 1495 1493 1497 1505 1515 1520 1531 1533 1522 1496 1495 1493 1493 1492 1493 1494 1496 1498 1500 1502 1503 1506 1508 1509 1510 1511 1512 1512 1512 1512 1512 1512 1512 1512 1512 1511 1510 1509 1508
1497 1506 1511 1502 1491 1487 1489 1495 1504 1518 1520 1520 1525 1519 1490 1490 1490 1490 1491 1492 1494 1495 1497 1499 1501 1502 1504 1506 1507 1509 1509 1510 1511 1511 1511 1511 1511 1510 1510 1509 1509 1508 1507 1506
1498 1509 1519 1514 1506 1495 1494 1493 1497 1505 1515 1519 1523 1515 1491 1490 1491 1491 1492 1492 1494 1495 1496 1498 1500 1502 1503 1505 1506 1507 1508 1509 1509 1509 1510 1510 1509 1509 1508 1507 1507 1506 1505 1504
1497 1508 1516 1521 1514 1502 1498 1494 1493 1502 1515 1514 1509 1504 1495 1493 1492 1492 1492 1492 1493 1495 1496 1498 1499 1501 1503 1504 1505 1506 1507 1507 1508 1509 1509 1508 1508 1507 1507 1506 1505 1504 1504 1503
1501 1508 1504 1502 1497 1495 1494 1492 1491 1495 1498 1504 1499 1496 1492 1490 1489 1490 1491 1492 1493 1494 1496 1497 1498 1499 1501 1503 1504 1505 1506 1506 1507 1508 1508 1507 1507 1507 1506 1505 1504 1503 1503 1502
1503 1507 1505 1503 1495 1495 1494 1489 1488 1489 1489 1491 1491 1492 1486 1485 1487 1488 1490 1491 1492 1493 1494 1495 1497 1499 1500 1501 1502 1503 1504 1505 1506 1506 1506 1506 1506 1506 1505 1504 1503 1503 1502 1501
1506 1508 1511 1511 1500 1497 1501 1490 1486 1487 1485 1488 1492 1490 1485 1486 1486 1487 1488 1490 1490 1491 1492 1493 1494 1496 1498 1500 1501 1502 1503 1504 1505 1505 1506 1506 1505 1505 1505 1504 1503 1502 1501 1501
1503 1507 1513 1513 1507 1513 1496 1481 1480 1482 1484 1484 1484 1485 1484 1484 1484 1485 1487 1489 1489 1490 1491 1492 1493 1495 1497 1498 1500 1501 1502 1503 1504 1504 1505 1505 1505 1505 1504 1504 1503 1502 1501 1500
1493 1502 1510 1513 1512 1503 1490 1482 1481 1484 1487 1484 1484 1485 1485 1485 1485 1486 1486 1486 1487 1488 1489 1490 1491 1493 1495 1497 1498 1500 1501 1502 1502 1503 1504 1504 1504 1504 1504 1504 1503 1502 1502 1501
1492 1497 1506 1509 1510 1509 1495 1482 1477 1480 1489 1482 1482 1484 1485 1486 1490 1488 1486 1485 1486 1486 1487 1489 1490 1492 1494 1496 1497 1499 1499 1500 1501 1502 1503 1504 1504 1504 1504 1504 1503 1503 1502 1501
1502 1502 1505 1507 1507 1499 1488 1482 1480 1493 1494 1483 1481 1483 1484 1485 1486 1484 1484 1485 1485 1485 1486 1487 1489 1491 1493 1495 1496 1497 1498 1499 1500 1502 1502 1503 1503 1503 1503 1503 1503 1502 1502 1501
1506 1506 1505 1505 1507 1503 1486 1483 1487 1489 1484 1483 1483 1483 1483 1483 1482 1482 1483 1484 1484 1485 1486 1487 1489 1490 1492 1493 1494 1495 1497 1499 1500 1501 1502 1502 1502 1502 1502 1502 1502 1502 1501 1500
1501 1501 1502 1502 1500 1490 1487 1485 1485 1485 1484 1483 1483 1482 1482 1482 1482 1482 1482 1483 1484 1485 1485 1487 1488 1490 1491 1492 1493 1494 1496 1498 1499 1500 1501 1501 1501 1501 1501 1501 1501 1501 1500 1499
1497 1495 1496 1496 1490 1487 1486 1485 1485 1484 1483 1483 1483 1482 1481 1481 1481 1482 1482 1482 1483 1484 1485 1487 1488 1489 1490 1491 1493 1494 1496 1497 1498 1499 1500 1500 1500 1500 1500 1500 1500 1499 1499 1498
1495 1495 1495 1493 1488 1486 1483 1483 1483 1483 1482 1482 1482 1482 1481 1481 1480 1481 1481 1481 1482 1483 1485 1486 1487 1487 1489 1491 1492 1493 1495 1496 1497 1498 1498 1499 1499 1499 1499 1499 1499 1498 1498 1497
1490 1492 1493 1489 1484 1485 1482 1481 1481 1481 1480 1480 1480 1480 1480 1480 1479 1479 1479 1481 1481 1482 1484 1485 1486 1487 1488 1490 1491 1493 1494 1495 1496 1497 1497 1498 1498 1498 1498 1498 1498 1497 1497 1496